EN

Hourly Weather Lukashovo

Today, 24 November, Tuesday

Time Temperature Precipitation Wind Pressure Humidity
00:00 +2°C° 0 mm 5 mps 742 mmHg 86%
01:00 +2°C° 0 mm 5 mps 742 mmHg 86%
02:00 +1°C° 0 mm 5 mps 742 mmHg 87%
03:00 +1°C° 0 mm 5 mps 742 mmHg 85%
04:00 +1°C° 0 mm 6 mps 743 mmHg 82%
05:00 +2°C° 0 mm 6 mps 743 mmHg 80%
06:00 +1°C° 0 mm 6 mps 743 mmHg 81%
07:00 +1°C° 0 mm 6 mps 743 mmHg 81%
08:00 0°C° 0 mm 5 mps 744 mmHg 82%
09:00 +1°C° 0 mm 5 mps 744 mmHg 79%
10:00 +1°C° 0 mm 5 mps 745 mmHg 75%
11:00 +2°C° 0 mm 5 mps 745 mmHg 71%
12:00 +2°C° 0 mm 5 mps 745 mmHg 73%
13:00 +3°C° 0 mm 4 mps 745 mmHg 75%
14:00 +4°C° 0 mm 4 mps 745 mmHg 77%
15:00 +3°C° 0.2 mm 4 mps 745 mmHg 82%
16:00 +3°C° 0.2 mm 3 mps 745 mmHg 87%
17:00 +3°C° 0.2 mm 3 mps 745 mmHg 92%
18:00 +3°C° 0.2 mm 4 mps 745 mmHg 92%
19:00 +3°C° 0.2 mm 4 mps 745 mmHg 92%
20:00 +4°C° 0.2 mm 4 mps 745 mmHg 91%
21:00 +4°C° 0.6 mm 4 mps 745 mmHg 92%
22:00 +3°C° 0.6 mm 4 mps 744 mmHg 92%
23:00 +3°C° 0.6 mm 4 mps 744 mmHg 92%

Tomorrow, 25 November, Wednesday

Time Temperature Precipitation Wind Pressure Humidity
00:00 +3°C° 0.7 mm 4 mps 744 mmHg 92%
01:00 +2°C° 0.7 mm 5 mps 744 mmHg 92%
02:00 +2°C° 0.7 mm 5 mps 744 mmHg 91%
03:00 +3°C° 0.5 mm 5 mps 744 mmHg 92%
04:00 +3°C° 0.5 mm 5 mps 744 mmHg 92%
05:00 +5°C° 0.5 mm 5 mps 743 mmHg 92%
06:00 +5°C° 0.3 mm 5 mps 744 mmHg 93%
07:00 +6°C° 0.3 mm 5 mps 744 mmHg 93%
08:00 +6°C° 0.3 mm 4 mps 744 mmHg 94%
09:00 +6°C° 0.1 mm 4 mps 745 mmHg 93%
10:00 +7°C° 0.1 mm 4 mps 745 mmHg 92%
11:00 +7°C° 0.1 mm 4 mps 745 mmHg 91%
12:00 +7°C° 0 mm 4 mps 745 mmHg 91%
13:00 +8°C° 0 mm 3 mps 746 mmHg 91%
14:00 +8°C° 0 mm 3 mps 746 mmHg 91%
15:00 +8°C° 0.1 mm 3 mps 746 mmHg 92%
16:00 +8°C° 0.1 mm 3 mps 746 mmHg 94%
17:00 +7°C° 0.1 mm 3 mps 746 mmHg 96%
18:00 +7°C° 0.1 mm 3 mps 746 mmHg 95%
19:00 +7°C° 0.1 mm 3 mps 747 mmHg 95%
20:00 +7°C° 0.1 mm 3 mps 747 mmHg 94%
21:00 +7°C° 0 mm 3 mps 747 mmHg 94%
22:00 +7°C° 0 mm 3 mps 747 mmHg 94%
23:00 +7°C° 0 mm 3 mps 746 mmHg 94%

Day after tomorrow, 26 November, Thursday

Time Temperature Precipitation Wind Pressure Humidity
00:00 +5°C° 0 mm 3 mps 747 mmHg 94%
01:00 +5°C° 0 mm 3 mps 747 mmHg 93%
02:00 +5°C° 0 mm 3 mps 747 mmHg 92%
03:00 +4°C° 0 mm 4 mps 746 mmHg 90%
04:00 +3°C° 0 mm 4 mps 746 mmHg 87%
05:00 +3°C° 0 mm 4 mps 746 mmHg 85%
06:00 +1°C° 0 mm 4 mps 746 mmHg 84%
07:00 0°C° 0 mm 4 mps 746 mmHg 84%
08:00 0°C° 0 mm 4 mps 745 mmHg 83%
09:00 0°C° 0 mm 4 mps 745 mmHg 81%
10:00 0°C° 0 mm 4 mps 745 mmHg 79%
11:00 0°C° 0 mm 4 mps 745 mmHg 76%
12:00 0°C° 0 mm 4 mps 745 mmHg 76%
13:00 0°C° 0 mm 4 mps 745 mmHg 75%
14:00 +1°C° 0 mm 4 mps 744 mmHg 75%
15:00 0°C° 0 mm 4 mps 744 mmHg 77%
16:00 0°C° 0 mm 4 mps 743 mmHg 79%
17:00 -1°C° 0 mm 4 mps 743 mmHg 82%
18:00 -1°C° 0 mm 4 mps 743 mmHg 83%
19:00 -1°C° 0 mm 4 mps 743 mmHg 85%
20:00 -1°C° 0 mm 4 mps 743 mmHg 86%
21:00 -1°C° 0 mm 4 mps 742 mmHg 88%
22:00 -1°C° 0 mm 4 mps 742 mmHg 89%
23:00 0°C° 0 mm 3 mps 742 mmHg 90%

27 November, Friday

Time Temperature Precipitation Wind Pressure Humidity
00:00 -1°C° 0 mm 4 mps 742 mmHg 90%
01:00 -1°C° 0 mm 4 mps 741 mmHg 90%
02:00 -1°C° 0 mm 4 mps 741 mmHg 90%
03:00 -1°C° 0.1 mm 4 mps 741 mmHg 91%
04:00 0°C° 0.1 mm 4 mps 740 mmHg 92%
05:00 0°C° 0.1 mm 4 mps 740 mmHg 93%
06:00 0°C° 0.1 mm 5 mps 740 mmHg 93%
07:00 +1°C° 0.1 mm 5 mps 740 mmHg 93%
08:00 +1°C° 0.1 mm 5 mps 739 mmHg 93%
09:00 +2°C° 0 mm 5 mps 739 mmHg 91%
10:00 +2°C° 0 mm 6 mps 739 mmHg 89%
11:00 +3°C° 0 mm 6 mps 739 mmHg 87%
12:00 +3°C° 0.1 mm 6 mps 740 mmHg 88%
13:00 +2°C° 0.1 mm 5 mps 740 mmHg 89%
14:00 +2°C° 0.1 mm 5 mps 740 mmHg 90%
15:00 +2°C° 0 mm 5 mps 741 mmHg 86%
16:00 +1°C° 0 mm 5 mps 741 mmHg 82%
17:00 +1°C° 0 mm 5 mps 742 mmHg 79%
18:00 0°C° 0 mm 5 mps 742 mmHg 80%
19:00 -1°C° 0 mm 4 mps 743 mmHg 81%
20:00 -1°C° 0 mm 4 mps 743 mmHg 82%
21:00 -1°C° 0 mm 4 mps 743 mmHg 81%
22:00 -1°C° 0 mm 3 mps 744 mmHg 81%
23:00 -1°C° 0 mm 3 mps 744 mmHg 80%

28 November, Saturday

Time Temperature Precipitation Wind Pressure Humidity
00:00 -1°C° 0 mm 3 mps 745 mmHg 83%
01:00 -1°C° 0 mm 3 mps 745 mmHg 86%
02:00 -1°C° 0 mm 2 mps 745 mmHg 89%
03:00 -2°C° 0 mm 2 mps 746 mmHg 91%
04:00 -2°C° 0 mm 2 mps 746 mmHg 93%
05:00 -2°C° 0 mm 2 mps 746 mmHg 96%
06:00 -2°C° 0 mm 2 mps 747 mmHg 95%
07:00 -2°C° 0 mm 2 mps 747 mmHg 94%
08:00 -2°C° 0 mm 2 mps 748 mmHg 94%
09:00 -2°C° 0 mm 2 mps 748 mmHg 90%
10:00 -1°C° 0 mm 2 mps 748 mmHg 87%
11:00 -1°C° 0 mm 2 mps 749 mmHg 84%
12:00 -1°C° 0 mm 2 mps 749 mmHg 81%
13:00 -1°C° 0 mm 3 mps 749 mmHg 79%
14:00 -1°C° 0 mm 3 mps 749 mmHg 76%
15:00 -1°C° 0 mm 3 mps 750 mmHg 78%
16:00 -1°C° 0 mm 3 mps 750 mmHg 79%
17:00 -1°C° 0 mm 3 mps 750 mmHg 80%
18:00 -1°C° 0 mm 3 mps 750 mmHg 84%
19:00 -1°C° 0 mm 2 mps 751 mmHg 87%
20:00 -2°C° 0 mm 2 mps 751 mmHg 91%
21:00 -2°C° 0 mm 2 mps 751 mmHg 91%
22:00 -2°C° 0 mm 2 mps 751 mmHg 91%
23:00 -2°C° 0 mm 2 mps 752 mmHg 91%

29 November, Sunday

Time Temperature Precipitation Wind Pressure Humidity
00:00 -2°C° 0 mm 2 mps 752 mmHg 89%
01:00 -2°C° 0 mm 2 mps 752 mmHg 88%
02:00 -2°C° 0 mm 2 mps 752 mmHg 87%
03:00 -3°C° 0 mm 2 mps 752 mmHg 90%
04:00 -3°C° 0 mm 2 mps 752 mmHg 92%
05:00 -4°C° 0 mm 2 mps 752 mmHg 95%
06:00 -4°C° 0 mm 2 mps 752 mmHg 94%
07:00 -4°C° 0 mm 2 mps 752 mmHg 93%
08:00 -4°C° 0 mm 2 mps 752 mmHg 93%
09:00 -5°C° 0 mm 3 mps 753 mmHg 88%
10:00 -4°C° 0 mm 3 mps 753 mmHg 84%
11:00 -4°C° 0 mm 3 mps 753 mmHg 80%
12:00 -4°C° 0 mm 3 mps 753 mmHg 79%
13:00 -4°C° 0 mm 3 mps 753 mmHg 77%
14:00 -4°C° 0 mm 3 mps 753 mmHg 76%
15:00 -4°C° 0 mm 4 mps 753 mmHg 76%
16:00 -4°C° 0 mm 4 mps 753 mmHg 76%
17:00 -4°C° 0 mm 4 mps 753 mmHg 77%
18:00 -4°C° 0 mm 4 mps 753 mmHg 77%
19:00 -4°C° 0 mm 4 mps 753 mmHg 77%
20:00 -4°C° 0 mm 4 mps 753 mmHg 77%
21:00 -4°C° 0 mm 4 mps 753 mmHg 78%
22:00 -4°C° 0 mm 4 mps 753 mmHg 79%
23:00 -4°C° 0 mm 4 mps 753 mmHg 79%
Show more